Simultaneous Nadir Overpasses (SNOs) Predictions

Prediction of SNOs between GOES-14 and AQUA Satellite Orbit:

Table of predicted SNOs for the next 14.0 days since TLE Epoch: 10/26/2018
Index Date Time (GOES-14) GOES-14 Lat,Lon AQUA Lat,Lon Distance(km) Time Diff (sec)
1 10/27/2018 08:35:44 0.17,-104.13 0.26,-104.68 62.81 80
2 10/29/2018 08:20:52 0.18,-104.12 -0.36,-101.72 272.82 80
3 10/29/2018 20:42:15 -0.15,-104.04 -0.76,-106.91 326.30 80
4 10/31/2018 20:32:44 -0.15,-104.04 -0.13,-103.95 9.50 80
5 11/02/2018 20:20:32 -0.15,-104.03 0.51,-101.00 345.78 80
6 11/03/2018 08:41:47 0.12,-104.13 0.54,-106.16 231.01 80
7 11/05/2018 08:26:55 0.13,-104.12 -0.09,-103.20 105.17 80
8 11/05/2018 20:48:19 -0.11,-104.01 -1.01,-108.39 497.73 80
9 11/07/2018 08:14:42 0.14,-104.12 -0.67,-100.23 441.58 80
10 11/07/2018 20:36:06 -0.11,-104.02 -0.43,-105.43 160.64 80
11 11/09/2018 20:26:34 -0.12,-104.02 0.22,-102.47 176.25 80




NCC Satellite Simultaneous Nadir Overpasses (SNOs) Prediction Service
